Rockwall, TX

6:04 PM CST on December 09, 2019 (GMT -0600)
Rockwall

Weather History for KF46 - September, 2019

Change the Weather History Date:

Sunday, September 22, 2019

  Actual Average (KDFW) Record (KDFW)
Temperature  
Mean Temperature 82 °F -  
Max Temperature 92 °F 84 °F 101 °F (2005)
Min Temperature 73 °F 63 °F 45 °F (1983)
Cooling Degree Days 18    
Growing Degree Days 32 (Base 50)    
Moisture  
Dew Point 70 °F    
Average Humidity 69    
Maximum Humidity 98    
Minimum Humidity 44    
Precipitation  
Precipitation 0.00 in - - ()
Sea Level Pressure  
Sea Level Pressure 30.00 in    
Wind  
Wind Speed 10 mph ()    
Max Wind Speed 20 mph    
Max Gust Speed 25 mph    
Visibility 10.0 miles    
Events      
Averages and records for this station are not official NWS values.
T = Trace of Precipitation, MM = Missing Value Source: Averaged Metar Reports

Daily Weather History Graph

Daily Weather History Graph

Search for Another Location

Airport or City:

Astronomy

Sep. 22, 2019 Rise Set
Actual Time 7:13 AM CDT 7:22 PM CDT
Civil Twilight 6:49 AM CDT 7:47 PM CDT
Nautical Twilight 6:20 AM CDT 8:16 PM CDT
Astronomical Twilight 5:51 AM CDT 8:45 PM CDT
Moon 12:23 AM CDT (9/22) 2:59 PM CDT (9/22)
Length of Visible Light 12h 58m
Length of Day
12h 08m
Last Quarter, 44% of the Moon is Illuminated
Sep 22
Last Quarter
Sep 28
New
Oct 5
First Quarter
Oct 13
Full
Oct 21
Last Quarter

Hourly Weather History & Observations

Time (CDT) Temp. Heat Index Dew Point Humidity Pressure Visibility Wind Dir Wind Speed Gust Speed Precip Events Conditions
12:15 AM 79.2 °F - 70.0 °F 73% 30.00 in 10.0 mi South 9.2 mph 18.4 mph N/A   Clear
12:35 AM 79.0 °F - 70.3 °F 75% 30.00 in 10.0 mi South 10.4 mph 17.3 mph N/A   Clear
12:55 AM 79.0 °F - 70.7 °F 76% 30.00 in 10.0 mi South 11.5 mph 17.3 mph N/A   Clear
1:15 AM 78.8 °F - 70.2 °F 75% 30.00 in 10.0 mi South 12.7 mph 16.1 mph N/A   Clear
1:35 AM 78.3 °F - 70.0 °F 76% 30.00 in 10.0 mi South 9.2 mph 19.6 mph N/A   Clear
1:55 AM 77.9 °F - 70.2 °F 77% 30.01 in 10.0 mi South 10.4 mph 17.3 mph N/A   Clear
2:15 AM 77.2 °F - 70.2 °F 79% 30.01 in 10.0 mi South 10.4 mph - N/A   Clear
2:35 AM 77.0 °F - 70.2 °F 79% 30.02 in 10.0 mi South 10.4 mph 16.1 mph N/A   Clear
2:55 AM 76.3 °F - 70.2 °F 81% 30.02 in 10.0 mi South 9.2 mph 16.1 mph N/A   Clear
3:15 AM 76.1 °F - 70.3 °F 82% 30.02 in 10.0 mi South 9.2 mph - N/A   Clear
3:35 AM 75.4 °F - 70.7 °F 85% 30.02 in 10.0 mi South 5.8 mph - N/A   Clear
3:55 AM 75.2 °F - 70.7 °F 86% 30.03 in 10.0 mi South 6.9 mph - N/A   Clear
4:15 AM 74.5 °F - 71.1 °F 89% 30.02 in 10.0 mi South 5.8 mph - N/A   Clear
4:35 AM 74.3 °F - 71.6 °F 91% 30.03 in 10.0 mi South 5.8 mph - N/A   Scattered Clouds
4:55 AM 73.9 °F - 72.1 °F 94% 30.03 in 10.0 mi South 5.8 mph - N/A   Mostly Cloudy
5:15 AM 74.5 °F - 72.5 °F 94% 30.03 in 10.0 mi South 8.1 mph - N/A   Overcast
5:35 AM 74.7 °F - 72.7 °F 94% 30.03 in 10.0 mi South 9.2 mph - N/A   Overcast
5:55 AM 75.2 °F - 72.9 °F 92% 30.03 in 10.0 mi South 10.4 mph - N/A   Overcast
6:15 AM 75.2 °F - 73.2 °F 94% 30.03 in 10.0 mi South 9.2 mph - N/A   Overcast
6:35 AM 75.2 °F - 73.4 °F 94% 30.03 in 10.0 mi South 10.4 mph - N/A   Overcast
6:55 AM 75.2 °F - 73.6 °F 95% 30.03 in 10.0 mi South 13.8 mph - N/A   Overcast
7:15 AM 74.7 °F - 73.6 °F 96% 30.04 in 10.0 mi South 10.4 mph - N/A   Overcast
7:35 AM 74.7 °F - 73.9 °F 98% 30.04 in 10.0 mi South 10.4 mph - N/A   Overcast
7:55 AM 75.0 °F - 74.1 °F 97% 30.04 in 10.0 mi South 11.5 mph 18.4 mph N/A   Overcast
8:15 AM 75.6 °F - 74.3 °F 96% 30.04 in 10.0 mi South 10.4 mph - N/A   Overcast
8:35 AM 76.5 °F - 74.1 °F 92% 30.04 in 10.0 mi South 11.5 mph - N/A   Overcast
8:55 AM 76.8 °F - 74.1 °F 91% 30.04 in 10.0 mi South 11.5 mph - N/A   Overcast
9:15 AM 77.9 °F - 74.1 °F 88% 30.04 in 10.0 mi South 15.0 mph 20.7 mph N/A   Overcast
9:35 AM 78.6 °F - 72.9 °F 82% 30.03 in 10.0 mi South 17.3 mph 21.9 mph N/A   Overcast
9:55 AM 80.2 °F 84.2 °F 72.0 °F 76% 30.03 in 10.0 mi South 16.1 mph 23.0 mph N/A   Overcast
10:15 AM 82.6 °F 87.8 °F 72.1 °F 71% 30.04 in 10.0 mi South 13.8 mph 21.9 mph N/A   Mostly Cloudy
10:35 AM 82.8 °F 87.7 °F 71.6 °F 69% 30.04 in 10.0 mi SSW 16.1 mph 24.2 mph N/A   Mostly Cloudy
10:55 AM 82.8 °F 87.4 °F 71.2 °F 68% 30.03 in 10.0 mi South 19.6 mph 25.3 mph N/A   Mostly Cloudy
11:15 AM 84.4 °F 89.7 °F 71.4 °F 65% 30.04 in 10.0 mi South 18.4 mph 23.0 mph N/A   Mostly Cloudy
11:35 AM 84.4 °F 89.4 °F 70.9 °F 64% 30.04 in 10.0 mi SSW 13.8 mph 20.7 mph N/A   Mostly Cloudy
11:55 AM 85.1 °F 90.1 °F 70.7 °F 62% 30.03 in 10.0 mi SSW 16.1 mph 19.6 mph N/A   Mostly Cloudy
12:15 PM 85.5 °F 90.1 °F 70.2 °F 60% 30.03 in 10.0 mi SSW 13.8 mph 19.6 mph N/A   Mostly Cloudy
12:35 PM 85.6 °F 90.4 °F 70.2 °F 60% 30.03 in 10.0 mi South 10.4 mph 21.9 mph N/A   Mostly Cloudy
12:55 PM 88.2 °F 93.7 °F 70.9 °F 56% 30.02 in 10.0 mi SW 12.7 mph 20.7 mph N/A   Mostly Cloudy
1:15 PM 87.4 °F 92.3 °F 69.8 °F 56% 30.01 in 10.0 mi South 16.1 mph 20.7 mph N/A   Mostly Cloudy
1:35 PM 89.1 °F 94.1 °F 70.2 °F 53% 30.00 in 10.0 mi SSW 15.0 mph 20.7 mph N/A   Mostly Cloudy
1:55 PM 90.0 °F 95.0 °F 69.6 °F 51% 29.99 in 10.0 mi South 13.8 mph 21.9 mph N/A   Mostly Cloudy
2:15 PM 90.1 °F 95.3 °F 70.0 °F 51% 29.99 in 10.0 mi SSW 12.7 mph - N/A   Scattered Clouds
2:35 PM 90.0 °F 94.5 °F 69.3 °F 50% 29.98 in 10.0 mi SSW 12.7 mph - N/A   Scattered Clouds
2:55 PM 91.2 °F 96.5 °F 69.4 °F 49% 29.97 in 10.0 mi South 16.1 mph 19.6 mph N/A   Scattered Clouds
3:15 PM 90.5 °F 95.1 °F 68.7 °F 49% 29.97 in 10.0 mi South 16.1 mph 23.0 mph N/A   Mostly Cloudy
3:35 PM 91.2 °F 96.0 °F 69.1 °F 48% 29.96 in 10.0 mi SSW 12.7 mph 19.6 mph N/A   Overcast
3:55 PM 92.7 °F 97.7 °F 69.3 °F 46% 29.96 in 10.0 mi SSW 9.2 mph - N/A   Mostly Cloudy
4:15 PM 91.9 °F 96.9 °F 69.1 °F 47% 29.95 in 10.0 mi South 11.5 mph 17.3 mph N/A   Mostly Cloudy
4:35 PM 91.6 °F 96.2 °F 68.7 °F 47% 29.94 in 10.0 mi SSW 10.4 mph 16.1 mph N/A   Scattered Clouds
4:55 PM 91.0 °F 95.2 °F 68.0 °F 47% 29.94 in 10.0 mi South 10.4 mph 17.3 mph N/A   Clear
5:15 PM 91.6 °F 95.2 °F 67.3 °F 45% 29.94 in 10.0 mi SSW 12.7 mph 18.4 mph N/A   Scattered Clouds
5:35 PM 91.6 °F 94.8 °F 67.1 °F 44% 29.94 in 10.0 mi South 10.4 mph 18.4 mph N/A   Clear
5:55 PM 91.4 °F 94.5 °F 66.7 °F 44% 29.94 in 10.0 mi South 8.1 mph 17.3 mph N/A   Clear
6:15 PM 91.4 °F 94.9 °F 67.3 °F 45% 29.94 in 10.0 mi South 9.2 mph - N/A   Clear
6:35 PM 91.0 °F 94.3 °F 67.1 °F 45% 29.94 in 10.0 mi South 10.4 mph - N/A   Clear
6:55 PM 89.6 °F 93.0 °F 67.8 °F 48% 29.94 in 10.0 mi SSE 4.6 mph - N/A   Clear
7:15 PM 87.8 °F 91.4 °F 68.0 °F 52% 29.95 in 10.0 mi SE 5.8 mph - N/A   Clear
7:35 PM 86.2 °F 89.4 °F 68.0 °F 54% 29.94 in 10.0 mi SE 5.8 mph - N/A   Clear
7:55 PM 85.1 °F 88.2 °F 68.0 °F 56% 29.95 in 10.0 mi SE 4.6 mph - N/A   Clear
8:15 PM 84.6 °F 87.6 °F 67.8 °F 57% 29.96 in 10.0 mi SE 5.8 mph - N/A   Clear
8:35 PM 83.5 °F 86.4 °F 68.0 °F 59% 29.97 in 10.0 mi SE 5.8 mph - N/A   Clear
8:55 PM 83.5 °F 86.2 °F 67.5 °F 58% 29.96 in 10.0 mi SE 8.1 mph - N/A   Clear
9:15 PM 83.5 °F 86.4 °F 68.0 °F 59% 29.97 in 10.0 mi SSE 9.2 mph - N/A   Clear
9:35 PM 82.6 °F 85.7 °F 68.2 °F 62% 29.98 in 10.0 mi SE 4.6 mph - N/A   Clear
9:55 PM 81.3 °F 84.3 °F 68.4 °F 65% 29.99 in 10.0 mi SE 4.6 mph - N/A   Clear
10:15 PM 81.0 °F 83.9 °F 68.5 °F 66% 29.98 in 10.0 mi SSE 6.9 mph - N/A   Clear
10:35 PM 81.3 °F 84.5 °F 68.9 °F 66% 29.99 in 10.0 mi SSE 8.1 mph - N/A   Clear
10:55 PM 81.1 °F 84.4 °F 69.4 °F 67% 30.00 in 10.0 mi SSE 9.2 mph - N/A   Clear
11:15 PM 81.0 °F 84.7 °F 70.7 °F 71% 30.00 in 10.0 mi North - - N/A   Clear
11:35 PM 80.8 °F 84.7 °F 71.6 °F 73% 30.00 in 10.0 mi North - - N/A   Clear
11:55 PM 80.6 °F 84.7 °F 72.0 °F 75% 30.00 in 10.0 mi North - - N/A   Clear